Regional Weather Roundup
Issued by NWS

Home | Current Version | Previous Version | Graphics & Text | Print | Product List | Glossary On
Versions: 1 2 3 4 5 6 7 8 9 10 11 12 13 14 15 16 17 18 19 20 21 22 23 24 25 26 27 28
000
ASUS45 KTFX 191310
RWRMT
MONTANA REGIONAL WEATHER ROUNDUP
NATIONAL WEATHER SERVICE GREAT FALLS MT
600 AM MST THU JAN 19 2017

NOTE: "FAIR" INDICATES FEW OR NO CLOUDS BELOW 12000 FEET WITH NO
SIGNIFICANT WEATHER AND/OR OBSTRUCTIONS TO VISIBILITY.

MTZ001>007-043-191400-
WEST OF THE DIVIDE

CITY           SKY/WX    TMP DP  RH WIND       PRES   REMARKS
KALISPELL      CLOUDY    29  28  96 CALM      29.52R FOG
MISSOULA       CLOUDY    28  26  92 CALM      29.56S FOG
BUTTE          CLOUDY    20  15  81 CALM      29.56S
MULLAN PASS    LGT SNOW  31  28  89 VRB3      29.49S VSB 1
ANACONDA         N/A     36  25  64 SE8       29.53S WCI  29
DEER LODGE       N/A     37  27  65 S7        29.54S
EUREKA           N/A     36  34  93 S6        29.48R WCI  31
HAMILTON         N/A     39  28  65 S15       29.53S WCI  31
PLAINS           N/A     29  24  81 CALM      29.58S
RONAN            N/A     31  29  92 CALM      29.60R
$$

MTZ008-052>055-191400-
SOUTHWEST MONTANA

CITY           SKY/WX    TMP DP  RH WIND       PRES   REMARKS
BOZEMAN        CLOUDY    22  16  78 SW3       29.56S
DILLON         CLOUDY    35  19  52 S8        29.59R WCI  29
W YELLOWSTONE  CLOUDY    18  16  93 CALM      29.70F
ENNIS          CLOUDY    32  23  69 S22G30    29.64S WCI  19
TWIN BRIDGES     N/A     29  17  60 E7        29.64S WCI  22
$$

MTZ009-010-012-014-046-048-049-054-191400-
EAST SLOPES AND CENTRAL MONTANA

CITY           SKY/WX    TMP DP  RH WIND       PRES   REMARKS
CUT BANK       MOCLDY    39  31  72 SW15      29.39S WCI  31
GREAT FALLS    CLOUDY    41  25  53 S20       29.45R
MALMSTROM AFB  CLOUDY    40  28  64 SW18      29.44S
HELENA         CLOUDY    25  20  81 CALM      29.53R
AUGUSTA        MOCLDY    39  28  66 SW8       29.43R
BOWMANS CRNR   MOCLDY    35  25  66 S24       29.43R WCI  22
CHOTEAU          N/A     37  30  75 SE7       29.44R
CONRAD           N/A     32  29  89 S7        29.49S WCI  26
POWER            N/A     33  26  75 S14       29.43R WCI  23
RAYNESFORD       N/A     44  24  46 SW15      29.46F
ULM            MOCLDY    39  28  64 MISG      29.46R
$$

MTZ011-013-016-021-045-047-050-051-191400-
NORTH CENTRAL MONTANA

CITY           SKY/WX    TMP DP  RH WIND       PRES   REMARKS
HAVRE          PTCLDY    33  30  88 E5        29.42S
LEWISTOWN      CLOUDY    34  26  72 NE5       29.48S
CHINOOK          N/A     30  28  93 CALM      29.43F
DENTON         MOCLDY    39  30  69 SE17      29.42F WCI  30
FORT BENTON      N/A     48  27  43 MISG      29.43S
GEYSER         MOCLDY    46  28  49 SW13      29.42F
GRASS RANGE    MOCLDY    42  27  55 W15       29.43S
JUDITH GAP     MOCLDY    39  23  52 SW10      29.49F WCI  32
ROY            MOCLDY    46  30  54 MISG      29.43F
STANFORD       MOCLDY    47  27  45 W16G23    29.45R
WINIFRED       MOCLDY    45  28  52 SW16      29.44F
$$

MTZ017>020-022>027-061-062-191400-
NORTHEAST MONTANA

CITY           SKY/WX    TMP DP  RH WIND       PRES   REMARKS
GLASGOW        CLOUDY    20  16  84 SE8       29.46S WCI  10
JORDAN           N/A     18  14  84 CALM      29.46S
SIDNEY         CLOUDY    18  15  88 SW12      29.49F WCI   5
WOLF POINT     CLOUDY    12   7  80 CALM      29.48F
PLENTYWOOD       N/A     25  21  86 CALM      29.46S
POPLAR           N/A     19  18  93 NW3       29.49S
$$

MTZ028>42-056>058-191400-
SOUTHCENTRAL AND SOUTHEAST MONTANA

CITY           SKY/WX    TMP DP  RH WIND       PRES   REMARKS
BAKER          CLOUDY    18  13  80 NW3       29.50F
BILLINGS       CLOUDY    36  20  52 SW21      29.51S WCI  25
LIVINGSTON     CLOUDY    41  20  43 SW25G46   29.53S
MILES CITY     CLOUDY    20  15  81 S9        29.51S WCI   9
BIG TIMBER     PTCLDY    41  21  45 W22       29.54S
FORSYTH          N/A     25  19  80 CALM      29.50S
HARLOWTON      MOCLDY    38  22  52 W20       29.49F WCI  28
LAUREL           N/A     32  17  54 SW7       29.55R WCI  26
ROUNDUP          N/A     37  19  48 S13       29.46R WCI  29
$$

REGIONAL REPORTS...DAKOTAS

CITY           SKY/WX    TMP DP  RH WIND       PRES   REMARKS
WILLISTON      CLOUDY    19  18  95 S3        29.49S
MINOT          CLOUDY    23  19  85 SE3       29.48S
DICKINSON      CLOUDY    22  15  75 SW5       29.47F
BEACH            N/A     18  14  86 CALM      29.52S
CROSBY           N/A     27  23  86 S15       29.47R WCI  15
TIOGA            N/A     23  23 100 CALM      29.48F
WATFORD CITY     N/A     19  18  93 CALM      29.49F
BISMARCK       CLOUDY    11   6  81 E5        29.54F
GRAND FORKS    CLOUDY    22  17  81 S10       29.58F WCI  11
FARGO          FOG       27  26  96 SE9       29.62F VSB 3/4 WCI  18
BUFFALO SD       N/A     23  16  74 W6        29.44S WCI  16
RAPID CITY     CLOUDY    26  17  68 NW6       29.51F WCI  19
$$

REGIONAL REPORTS...WYOMING/IDAHO/WASHINGTON

CITY           SKY/WX    TMP DP  RH WIND       PRES   REMARKS
GILLETTE       CLOUDY    32  18  56 E5        29.53R
SHERIDAN       CLOUDY    16  11  80 W7        29.51S WCI   6
BUFFALO WY     CLOUDY    34  17  50 W12       29.51F WCI  25
CODY           CLOUDY    37  17  44 SE5       29.57S
YELLOWSTONE LA   N/A     17  16  95 CALM      29.69F
IDAHO FALLS    LGT SNOW  24  23  96 NW7       29.73S FOG     WCI  16
SALMON         CLOUDY    21  18  86 CALM      29.65R
BOISE          CLOUDY    35  33  92 SE9       29.63S WCI  28
SPOKANE        CLOUDY    36  33  89 S7        29.52R WCI  30
$$

REGIONAL REPORTS...ALBERTA

CITY           SKY/WX    TMP DP  RH WIND       PRES   REMARKS
EDMONTON       CLEAR     34  19  55 SW7       29.23S WCI  28
CALGARY        MOCLDY    34  27  75 SW7       29.24F WCI  28
LETHBRIDGE     MOCLDY    37  34  87 SW12      29.33R WCI  30
MEDICINE HAT   PTCLDY    36  32  87 W5        29.33R
WATERTON GATE    N/A     41  28  60 SW18G28     N/A
CARDSTON         N/A     39  30  70 SW8         N/A
MILK RIVER       N/A     39  34  81 SW7         N/A
$$

REGIONAL REPORTS...SASKATCHEWAN

CITY           SKY/WX    TMP DP  RH WIND       PRES   REMARKS
SWIFT CURRENT  PTCLDY    39  32  75 S12G18    29.36S WCI  32
REGINA         PTCLDY    25  21  86 SE6       29.41S WCI  18
SASKATOON      PTCLDY    28  27  93 S6        29.34R WCI  22
VAL MARIE        N/A     18  16  93 NE2         N/A
ROCKGLEN         N/A     34  28  80 SW12        N/A  WCI  25
$$




USA.gov is the U.S. government's official web portal to all federal, state and local government web resources and services.